TimeCDT,TemperatureF,Dew PointF,Humidity,Sea Level PressureIn,VisibilityMPH,Wind Direction,Wind SpeedMPH,Gust SpeedMPH,PrecipitationIn,Events,Conditions,WindDirDegrees,DateUTC
12:15 AM,68.0,64.4,88,30.10,10.0,Calm,Calm,-,N/A,,Clear,0,2013-05-24 05:15:00
12:35 AM,68.0,64.4,88,30.09,8.0,Calm,Calm,-,N/A,,Clear,0,2013-05-24 05:35:00
12:55 AM,66.2,64.4,94,30.08,10.0,Calm,Calm,-,N/A,,Clear,0,2013-05-24 05:55:00
1:15 AM,68.0,64.4,88,30.07,10.0,Calm,Calm,-,N/A,,Clear,0,2013-05-24 06:15:00
1:35 AM,66.2,64.4,94,30.07,10.0,Calm,Calm,-,N/A,,Clear,0,2013-05-24 06:35:00
1:55 AM,66.2,64.4,94,30.08,9.0,Calm,Calm,-,N/A,,Clear,0,2013-05-24 06:55:00
2:15 AM,66.2,64.4,94,30.08,9.0,Calm,Calm,-,N/A,,Clear,0,2013-05-24 07:15:00
2:35 AM,66.2,64.4,94,30.08,10.0,Calm,Calm,-,N/A,,Mostly Cloudy,0,2013-05-24 07:35:00
2:55 AM,68.0,64.4,88,30.09,10.0,Calm,Calm,-,N/A,,Overcast,0,2013-05-24 07:55:00
3:15 AM,68.0,64.4,88,30.09,10.0,Calm,Calm,-,N/A,,Overcast,0,2013-05-24 08:15:00
3:35 AM,68.0,64.4,88,30.09,10.0,NNE,4.6,-,N/A,,Mostly Cloudy,20,2013-05-24 08:35:00
3:55 AM,68.0,64.4,88,30.09,10.0,NNE,10.4,-,N/A,,Mostly Cloudy,30,2013-05-24 08:55:00
4:15 AM,68.0,62.6,83,30.10,10.0,NE,9.2,-,N/A,,Mostly Cloudy,40,2013-05-24 09:15:00
4:35 AM,68.0,62.6,83,30.11,10.0,NNE,6.9,-,N/A,,Scattered Clouds,30,2013-05-24 09:35:00
4:55 AM,66.2,62.6,88,30.13,10.0,NE,8.1,-,N/A,,Partly Cloudy,40,2013-05-24 09:55:00
5:15 AM,66.2,59.0,78,30.14,10.0,NE,6.9,16.1,N/A,,Mostly Cloudy,50,2013-05-24 10:15:00
5:35 AM,66.2,57.2,73,30.15,10.0,NE,8.1,-,N/A,,Overcast,50,2013-05-24 10:35:00
5:55 AM,66.2,57.2,73,30.16,10.0,NE,9.2,-,N/A,,Mostly Cloudy,40,2013-05-24 10:55:00
6:15 AM,66.2,57.2,73,30.18,10.0,NE,6.9,-,N/A,,Scattered Clouds,50,2013-05-24 11:15:00
6:35 AM,66.2,57.2,73,30.19,10.0,NE,4.6,-,N/A,,Mostly Cloudy,40,2013-05-24 11:35:00
6:55 AM,64.4,57.2,77,30.20,10.0,NE,10.4,-,N/A,,Scattered Clouds,40,2013-05-24 11:55:00
7:15 AM,66.2,57.2,73,30.20,10.0,NE,8.1,-,N/A,,Clear,40,2013-05-24 12:15:00
7:35 AM,66.2,57.2,73,30.21,10.0,NNE,9.2,-,N/A,,Clear,30,2013-05-24 12:35:00
7:55 AM,68.0,57.2,68,30.22,10.0,NE,10.4,16.1,N/A,,Clear,50,2013-05-24 12:55:00
8:15 AM,68.0,57.2,68,30.23,10.0,NE,10.4,18.4,N/A,,Clear,50,2013-05-24 13:15:00
8:35 AM,68.0,57.2,68,30.23,10.0,NE,9.2,-,N/A,,Clear,50,2013-05-24 13:35:00
8:55 AM,69.8,57.2,64,30.23,10.0,NE,9.2,-,N/A,,Clear,50,2013-05-24 13:55:00
9:15 AM,71.6,57.2,60,30.24,10.0,ENE,12.7,18.4,N/A,,Clear,60,2013-05-24 14:15:00
9:35 AM,71.6,57.2,60,30.25,10.0,East,9.2,-,N/A,,Clear,80,2013-05-24 14:35:00
9:55 AM,71.6,57.2,60,30.25,10.0,East,8.1,16.1,N/A,,Clear,80,2013-05-24 14:55:00
10:15 AM,73.4,57.2,57,30.25,10.0,NE,9.2,16.1,N/A,,Clear,50,2013-05-24 15:15:00
10:35 AM,73.4,57.2,57,30.26,10.0,ENE,9.2,18.4,N/A,,Scattered Clouds,60,2013-05-24 15:35:00
10:55 AM,75.2,57.2,53,30.26,10.0,ENE,9.2,-,N/A,,Mostly Cloudy,70,2013-05-24 15:55:00
11:15 AM,75.2,57.2,53,30.26,10.0,East,8.1,-,N/A,,Overcast,80,2013-05-24 16:15:00
11:35 AM,75.2,57.2,53,30.26,10.0,NE,9.2,-,N/A,,Mostly Cloudy,40,2013-05-24 16:35:00
11:55 AM,75.2,57.2,53,30.26,10.0,East,6.9,-,N/A,,Scattered Clouds,80,2013-05-24 16:55:00
12:15 PM,77.0,57.2,50,30.26,10.0,ENE,9.2,18.4,N/A,,Mostly Cloudy,60,2013-05-24 17:15:00
12:35 PM,77.0,57.2,50,30.25,10.0,East,6.9,-,N/A,,Scattered Clouds,100,2013-05-24 17:35:00
12:55 PM,77.0,57.2,50,30.25,10.0,NE,10.4,-,N/A,,Scattered Clouds,40,2013-05-24 17:55:00
1:15 PM,77.0,57.2,50,30.25,10.0,ESE,5.8,-,N/A,,Mostly Cloudy,110,2013-05-24 18:15:00
1:35 PM,78.8,59.0,51,30.24,10.0,ENE,6.9,-,N/A,,Scattered Clouds,70,2013-05-24 18:35:00
1:55 PM,78.8,59.0,51,30.24,10.0,East,8.1,-,N/A,,Clear,80,2013-05-24 18:55:00
2:15 PM,80.6,59.0,48,30.24,10.0,ENE,10.4,-,N/A,,Clear,60,2013-05-24 19:15:00
2:35 PM,80.6,59.0,48,30.23,10.0,NE,9.2,-,N/A,,Clear,40,2013-05-24 19:35:00
2:55 PM,80.6,59.0,48,30.23,10.0,ENE,9.2,-,N/A,,Partly Cloudy,70,2013-05-24 19:55:00
3:15 PM,80.6,59.0,48,30.22,10.0,ENE,6.9,-,N/A,,Scattered Clouds,60,2013-05-24 20:15:00
3:35 PM,80.6,59.0,48,30.21,10.0,East,6.9,-,N/A,,Clear,90,2013-05-24 20:35:00
3:55 PM,80.6,59.0,48,30.20,10.0,ENE,10.4,-,N/A,,Clear,60,2013-05-24 20:55:00
4:15 PM,80.6,59.0,48,30.19,10.0,ENE,9.2,-,N/A,,Clear,60,2013-05-24 21:15:00
4:35 PM,80.6,59.0,48,30.18,10.0,NE,9.2,-,N/A,,Clear,50,2013-05-24 21:35:00
4:55 PM,80.6,59.0,48,30.18,10.0,East,10.4,-,N/A,,Clear,80,2013-05-24 21:55:00
5:15 PM,80.6,59.0,48,30.18,10.0,East,10.4,-,N/A,,Clear,80,2013-05-24 22:15:00
5:35 PM,80.6,59.0,48,30.17,10.0,East,9.2,-,N/A,,Clear,80,2013-05-24 22:35:00
5:55 PM,80.6,59.0,48,30.17,10.0,East,6.9,-,N/A,,Clear,80,2013-05-24 22:55:00
6:15 PM,78.8,59.0,51,30.17,10.0,NE,8.1,-,N/A,,Clear,50,2013-05-24 23:15:00
6:35 PM,77.0,59.0,54,30.17,10.0,ENE,8.1,-,N/A,,Clear,60,2013-05-24 23:35:00
6:55 PM,75.2,59.0,57,30.17,10.0,NE,6.9,-,N/A,,Clear,40,2013-05-24 23:55:00
7:15 PM,73.4,59.0,61,30.18,10.0,NE,5.8,-,N/A,,Clear,50,2013-05-25 00:15:00
7:35 PM,73.4,59.0,61,30.18,10.0,NE,3.5,-,N/A,,Clear,50,2013-05-25 00:35:00
7:55 PM,71.6,59.0,64,30.19,10.0,NE,4.6,-,N/A,,Clear,50,2013-05-25 00:55:00
8:15 PM,69.8,57.2,64,30.19,10.0,NE,5.8,-,N/A,,Clear,50,2013-05-25 01:15:00
8:35 PM,68.0,57.2,68,30.19,10.0,NE,4.6,-,N/A,,Clear,50,2013-05-25 01:35:00
8:55 PM,68.0,57.2,68,30.19,10.0,NE,5.8,-,N/A,,Clear,50,2013-05-25 01:55:00
9:15 PM,66.2,55.4,68,30.19,10.0,NE,4.6,-,N/A,,Clear,50,2013-05-25 02:15:00
9:35 PM,66.2,55.4,68,30.19,10.0,ENE,4.6,-,N/A,,Clear,60,2013-05-25 02:35:00
9:55 PM,66.2,55.4,68,30.20,10.0,NE,4.6,-,N/A,,Clear,50,2013-05-25 02:55:00
10:15 PM,64.4,55.4,73,30.20,10.0,ENE,3.5,-,N/A,,Clear,60,2013-05-25 03:15:00
10:35 PM,64.4,55.4,73,30.21,10.0,Calm,Calm,-,N/A,,Clear,0,2013-05-25 03:35:00
10:55 PM,64.4,55.4,73,30.21,10.0,Calm,Calm,-,N/A,,Clear,0,2013-05-25 03:55:00
11:15 PM,62.6,55.4,77,30.22,10.0,Calm,Calm,-,N/A,,Clear,0,2013-05-25 04:15:00
11:35 PM,62.6,55.4,77,30.22,10.0,Calm,Calm,-,N/A,,Clear,0,2013-05-25 04:35:00
11:55 PM,60.8,55.4,82,30.21,10.0,NNE,5.8,-,N/A,,Clear,30,2013-05-25 04:55:00